{"data":{"norad_id":62330,"intl_designator":"2024-240H","name":"HULIANWANG DIGUI-08","alt_names":[],"object_type":"PAYLOAD","status":"ACTIVE","operator":null,"country":"PRC","launch_date":"2024-12-16","launch_site_code":"WSC","launch_vehicle":null,"mission":null,"orbit_class":"UNKNOWN","rcs_meters":null,"size_class":null,"mass_kg":null,"dimensions":null,"purposes":[],"wikipedia_slug":null,"has_3d_model":false,"image_url":null,"decayed_at":null,"tle_current":{"epoch":"2026-05-25T03:39:34.723008Z","epoch_age_seconds":76049,"freshness":"FRESH","line1":"1 62330U 24240H   26145.15248522  .00000056  00000+0  95720-4 0  9990","line2":"2 62330  86.5037 351.1683 0001303  91.6953 268.4331 13.24408578 69590","mean_motion":13.24408578,"eccentricity":0.0001303,"inclination_deg":86.5037,"raan_deg":351.1683,"arg_perigee_deg":91.6953,"mean_anomaly_deg":268.4331,"bstar":9.572e-5,"rev_number":6959,"period_min":108.72777660309,"perigee_km":1166.9443348128,"apogee_km":1168.9108392442,"semimajor_km":7546.0645870285,"source":"CELESTRAK","updated_at":"2026-05-25T13:38:02.938167Z"}}}